Starlink 32634

operational
NORAD ID: 62313 Int'l Des: 2024-239 Owner: SPXS Country: US Constellation: starlink
LEOCIRCULAR

关于 Starlink 32634

正在加载描述...

实时位置

正在加载3D地球...

即将过境

高度历史

Altitude vs Time

uPlot chart will show altitude changes over time

两行轨道根数

1 62313U 24239N 26095.18727470 .00032291 00000-0 10984-2 0 9994
2 62313 53.1591 57.8565 0001289 88.8577 271.2571 15.30176547 73622
Epoch: Apr 5, 2026 • Age: 14 hours

当前状态

高度 483.9 km
速度 7.62 km/s
星下点 -27.47°S, 78.45°W
发射日期 Dec 13, 2024
运行时间 1.3 years
类型 internet

技术详情

分类 Payload
质量 730.00 kg
干质量 700.00 kg
总质量 730.00 kg
长度 0.30 m
直径 4.10 m
跨度 29.00 m
形状 Box + pan
制造商 SPXS
平台类型 Starlink V2M
阶段状态 In Orbit
所有者/国家 SPXS/US

大型星座

Loading constellations...